Chatawa, MS

10:49 AM CDT on July 23, 2016 (GMT -0500)
McComb-Pike County-Lewis

Weather History for KMCB - May, 2013

Change the Weather History Date:

Sunday, May 26, 2013

  Actual Average Record
Temperature  
Mean Temperature 72 °F -  
Max Temperature 82 °F 86 °F 95 °F (1964)
Min Temperature 61 °F 63 °F 41 °F (1979)
Cooling Degree Days 6    
Growing Degree Days 22 (Base 50)    
Moisture  
Dew Point 61 °F    
Average Humidity 69    
Maximum Humidity 90    
Minimum Humidity 42    
Precipitation  
Precipitation 0.00 in - - ()
Sea Level Pressure  
Sea Level Pressure 30.15 in    
Wind  
Wind Speed 1 mph (SSE)    
Max Wind Speed 8 mph    
Max Gust Speed -    
Visibility 10 miles    
Events      
Averages and records for this station are not official NWS values.
T = Trace of Precipitation, MM = Missing Value Source: NWS Daily Summary

Daily Weather History Graph

Daily Weather History Graph

Search for Another Location

Airport or City:

Trip Planner

Search our weather history database for the weather conditions in past years. The results will help you decide how hot, cold, wet, or windy it might be!

Date:

Astronomy

May. 26, 2013 Rise Set
Actual Time 6:00 AM CDT 7:57 PM CDT
Civil Twilight 5:33 AM CDT 8:25 PM CDT
Nautical Twilight 5:00 AM CDT 8:58 PM CDT
Astronomical Twilight 4:25 AM CDT 9:33 PM CDT
Moon 9:47 PM CDT (5/26) 7:28 AM CDT (5/26)
Length of Visible Light 14h 51m
Length of Day
13h 57m
Waning Gibbous, 96% of the Moon is Illuminated
May 26
Waning Gibbous
May 31
Last Quarter
Jun 8
New
Jun 16
First Quarter
Jun 23
Full

Hourly Weather History & Observations

Time (CDT) Temp. Heat Index Dew Point Humidity Pressure Visibility Wind Dir Wind Speed Gust Speed Precip Events Conditions
12:53 AM 63.0 °F - 57.9 °F 84% 30.15 in 10.0 mi Calm Calm - N/A   Clear
1:53 AM 61.0 °F - 57.9 °F 90% 30.13 in 10.0 mi Calm Calm - N/A   Clear
2:53 AM 62.1 °F - 59.0 °F 90% 30.13 in 10.0 mi Calm Calm - N/A   Clear
3:53 AM 62.1 °F - 59.0 °F 90% 30.14 in 10.0 mi Calm Calm - N/A   Clear
4:53 AM 64.0 °F - 60.1 °F 87% 30.15 in 10.0 mi Calm Calm - N/A   Clear
5:53 AM 63.0 °F - 60.1 °F 90% 30.16 in 10.0 mi Calm Calm - N/A   Clear
6:53 AM 63.0 °F - 60.1 °F 90% 30.16 in 10.0 mi Calm Calm - N/A   Clear
7:53 AM 70.0 °F - 63.0 °F 78% 30.17 in 10.0 mi Calm Calm - N/A   Clear
8:53 AM 73.9 °F - 64.0 °F 71% 30.19 in 10.0 mi SE 3.5 mph - N/A   Clear
9:53 AM 78.1 °F - 61.0 °F 56% 30.19 in 10.0 mi SE 8.1 mph - N/A   Clear
10:53 AM 80.1 °F 80.7 °F 59.0 °F 48% 30.19 in 10.0 mi Variable 5.8 mph - N/A   Clear
11:53 AM 82.0 °F 81.7 °F 57.0 °F 42% 30.18 in 10.0 mi SSE 6.9 mph - N/A   Clear
12:53 PM 82.0 °F 81.7 °F 57.0 °F 42% 30.17 in 10.0 mi SSW 4.6 mph - N/A   Clear
1:53 PM 82.0 °F 81.7 °F 57.0 °F 42% 30.17 in 10.0 mi South 5.8 mph - N/A   Clear
2:53 PM 81.0 °F 81.0 °F 57.0 °F 44% 30.15 in 10.0 mi South 6.9 mph - N/A   Clear
3:53 PM 80.1 °F 80.6 °F 57.9 °F 47% 30.14 in 10.0 mi Calm Calm - N/A   Clear
4:53 PM 80.1 °F 81.1 °F 61.0 °F 52% 30.13 in 10.0 mi Calm Calm - N/A   Clear
5:53 PM 79.0 °F - 62.1 °F 56% 30.11 in 10.0 mi Calm Calm - N/A   Clear
6:53 PM 77.0 °F - 64.9 °F 66% 30.11 in 10.0 mi Calm Calm - N/A   Clear
7:53 PM 77.0 °F - 64.9 °F 66% 30.11 in 10.0 mi Calm Calm - N/A   Clear
8:53 PM 72.0 °F - 66.0 °F 81% 30.11 in 10.0 mi Calm Calm - N/A   Clear
9:53 PM 70.0 °F - 64.9 °F 84% 30.12 in 10.0 mi Calm Calm - N/A   Clear
10:53 PM 69.1 °F - 63.0 °F 81% 30.13 in 10.0 mi Calm Calm - N/A   Clear
11:53 PM 66.9 °F - 62.1 °F 84% 30.12 in 10.0 mi SE 4.6 mph - N/A   Clear